This demonstration page uses our WeatherBlox Daily Observations layout. Learn more.

Left ArrowRight Arrow

39.51506, -84.39828

Hourly Observations for June 19, 2018

Temp ( °F °C ) Dew Point ( °F °C ) Humidity (%) Winds ( mph kmh ) Pressure ( in mb ) Visibility ( mi km ) Precip ( " mm )
12:15 am 00:15 Clear 78 25.3 73 22.5 85 85 SW 5 7 29.97 1015 10 16 N/A
12:35 am 00:35 Clear 77 25 73 22.5 86 86 SW 5 7 29.97 1015 10 16 N/A
12:55 am 00:55 Clear 77 25 73 22.5 86 86 SW 6 9 29.97 1015 10 16 N/A
1:15 am 01:15 Clear 77 25 73 22.6 87 87 SW 7 11 29.97 1015 10 16 N/A
1:35 am 01:35 Clear 76 24.7 73 22.5 88 88 SW 7 11 29.97 1015 10 16 N/A
1:55 am 01:55 Clear 76 24.5 73 22.5 89 89 SW 7 11 29.97 1015 10 16 N/A
2:15 am 02:15 Clear 76 24.2 73 22.5 90 90 SW 5 7 29.97 1015 10 16 N/A
2:35 am 02:35 Clear 75 24 72 22.4 91 91 SW 7 11 29.97 1015 10 16 N/A
2:55 am 02:55 Clear 76 24.2 73 22.6 91 91 SSW 8 13 29.97 1015 10 16 N/A
3:15 am 03:15 Clear 75 24.1 73 22.5 91 91 SSW 6 9 29.97 1015 10 16 N/A
3:35 am 03:35 Clear 75 23.9 72 22.4 91 91 SSW 5 7 29.97 1015 10 16 N/A
3:55 am 03:55 Clear 75 23.9 73 22.5 92 92 SSW 6 9 29.94 1014 10 16 N/A
4:15 am 04:15 Clear 75 23.7 72 22.4 92 92 SSW 5 7 29.94 1014 10 16 N/A
4:35 am 04:35 Clear 74 23.4 72 22.3 94 94 SSW 6 9 29.94 1014 10 16 N/A
4:55 am 04:55 Clear 74 23.3 72 22.4 95 95 SW 6 9 29.97 1015 10 16 N/A
5:15 am 05:15 Clear 74 23.2 72 22.3 95 95 SW 7 11 29.97 1015 10 16 N/A
5:35 am 05:35 Clear 74 23.2 72 22.3 95 95 SW 7 11 29.97 1015 10 16 N/A
5:55 am 05:55 Partly Cloudy 73 23 72 22.2 95 95 NW 5 7 29.97 1015 10 16 N/A
6:15 am 06:15 Partly Cloudy 73 23 72 22.2 95 95 N N/A 29.97 1015 7 11 N/A
6:35 am 06:35 Sunny with Mist and Fog 74 23.2 72 22.2 94 94 N N/A 29.97 1015 7 11 N/A
6:55 am 06:55 Sunny with Mist and Fog 73 22.8 72 22.2 96 96 N N/A 29.97 1015 5 8 N/A
7:15 am 07:15 Mostly Cloudy 74 23.6 73 22.9 96 96 N N/A 30.00 1016 7 11 N/A
7:35 am 07:35 Sunny 76 24.7 74 23.1 91 91 N N/A 29.97 1015 10 16 N/A
7:55 am 07:55 Sunny 79 25.9 73 22.9 84 84 SW 5 7 29.97 1015 10 16 N/A
8:15 am 08:15 Sunny 79 26 74 23.1 84 84 SW 3 6 29.97 1015 10 16 N/A
8:35 am 08:35 Sunny 80 26.8 73 23 80 80 SW 5 7 29.97 1015 10 16 N/A
8:55 am 08:55 Sunny 81 27.3 74 23.4 79 79 SW 6 9 29.97 1015 10 16 N/A
9:15 am 09:15 Sunny 82 27.7 74 23.5 78 78 WSW 7 11 29.97 1015 10 16 N/A
9:35 am 09:35 Sunny 83 28.1 74 23.6 77 77 W 7 11 29.94 1014 10 16 N/A
9:55 am 09:55 Sunny 83 28.5 75 23.9 76 76 WSW 7 11 29.94 1014 10 16 N/A
10:15 am 10:15 Sunny 84 29 74 23.6 73 73 SW 6 9 29.94 1014 10 16 N/A
10:35 am 10:35 Partly Cloudy 85 29.4 75 23.8 72 72 SW 5 7 29.94 1014 10 16 N/A
10:55 am 10:55 Sunny 86 30 76 24.2 71 71 W 7 11 29.94 1014 10 16 N/A
11:15 am 11:15 Partly Cloudy 86 30.2 76 24.2 70 70 WSW 6 9 29.91 1013 10 16 N/A
11:35 am 11:35 Sunny 87 30.5 76 24.4 70 70 SW 10 17 29.91 1013 10 16 N/A
11:55 am 11:55 Partly Cloudy 88 31.2 76 24.3 67 67 W 10 17 29.91 1013 10 16 N/A
12:15 pm 12:15 Partly Cloudy 88 31.2 75 24 66 66 WSW 10 17 29.91 1013 10 16 N/A
12:35 pm 12:35 Mostly Cloudy 88 31 76 24.3 68 68 WSW 9 15 29.91 1013 10 16 N/A
12:55 pm 12:55 Partly Cloudy 89 31.9 76 24.5 65 65 W 8 13 29.91 1013 10 16 N/A
1:15 pm 13:15 Mostly Cloudy 85 29.2 72 22.3 66 66 NNW 10 17 29.91 1013 10 16 N/A
1:35 pm 13:35 Mostly Cloudy with Light Rain 82 27.9 74 23.5 77 77 NNW 6 9 29.88 1012 7 11 0.17 4.32
1:55 pm 13:55 Partly Cloudy 82 27.8 75 24.1 80 80 WNW 6 9 29.88 1012 10 16 0.17 4.32
2:15 pm 14:15 Partly Cloudy 83 28.5 77 25.1 82 82 NNW 3 6 29.85 1011 10 16 N/A
2:35 pm 14:35 Mostly Cloudy with Nearby Thunderstorms 86 29.8 78 25.4 77 77 NNW 5 7 29.85 1011 10 16 N/A
2:55 pm 14:55 Cloudy with Nearby Thunderstorms 81 27.4 74 23.2 78 78 NNW 12 19 29.88 1012 10 16 N/A
3:15 pm 15:15 Mostly Cloudy with Nearby Thunderstorms 80 26.5 72 22 76 76 NNW 17 28 29.91 1013 10 16 N/A
3:35 pm 15:35 Mostly Cloudy with Thunderstorms 80 26.8 72 22 75 75 N 10 17 29.91 1013 10 16 N/A
3:55 pm 15:55 Mostly Cloudy 81 27.2 73 22.7 76 76 E 12 19 29.91 1013 10 16 N/A
4:15 pm 16:15 Mostly Cloudy 81 27.3 73 22.5 75 75 E 10 17 29.88 1012 10 16 N/A
4:35 pm 16:35 Sunny 81 27.2 73 22.6 76 76 E 8 13 29.91 1013 10 16 N/A
4:55 pm 16:55 Sunny 82 27.9 73 22.6 73 73 ENE 7 11 29.85 1011 10 16 N/A
5:15 pm 17:15 Sunny 83 28.4 73 23 73 73 ENE 6 9 29.85 1011 10 16 N/A
5:35 pm 17:35 Sunny 83 28.6 74 23.2 73 73 NE 5 7 29.85 1011 10 16 N/A
5:55 pm 17:55 Sunny 83 28.6 73 22.6 70 70 N 5 7 29.85 1011 10 16 N/A
6:15 pm 18:15 Mostly Cloudy 83 28.1 74 23.5 76 76 NNE 10 17 29.85 1011 10 16 N/A
6:35 pm 18:35 Cloudy 80 26.5 72 22.2 77 77 N 13 20 29.91 1013 10 16 N/A
6:55 pm 18:55 Cloudy with Light Rain 75 24 72 22 89 89 NNW 9 15 29.91 1013 4 6 0.05 1.27
7:15 pm 19:15 Partly Cloudy 75 24 73 22.5 91 91 N N/A 29.91 1013 10 16 N/A
7:35 pm 19:35 Cloudy 76 24.5 73 22.7 90 90 N N/A 29.91 1013 10 16 N/A
7:55 pm 19:55 Partly Cloudy 77 24.9 73 22.5 87 87 N N/A 29.91 1013 10 16 N/A
8:15 pm 20:15 Partly Cloudy 76 24.7 73 22.8 89 89 N N/A 29.91 1013 10 16 N/A
8:35 pm 20:35 Mostly Cloudy 76 24.5 73 22.7 90 90 N N/A 29.91 1013 10 16 N/A
8:55 pm 20:55 Mostly Cloudy 75 24 73 23 94 94 NW 3 6 29.91 1013 10 16 N/A
9:15 pm 21:15 Mostly Cloudy with Light Rain 75 24 73 23 94 94 N N/A 29.91 1013 10 16 N/A
9:35 pm 21:35 Clear 74 23.4 73 22.5 95 95 NNW 3 6 29.91 1013 10 16 N/A
9:55 pm 21:55 Clear 74 23.4 72 22.2 93 93 N N/A 29.91 1013 10 16 N/A
10:15 pm 22:15 Clear 73 22.8 72 22.3 97 97 SSW 5 7 29.91 1013 10 16 N/A
10:35 pm 22:35 Cloudy 75 23.7 72 22.4 92 92 S 6 9 29.91 1013 10 16 N/A
10:55 pm 22:55 Mostly Cloudy 74 23.6 72 22.4 93 93 SSW 6 9 29.91 1013 10 16 N/A
11:15 pm 23:15 Partly Cloudy 74 23.5 73 22.5 94 94 SSW 5 7 29.91 1013 10 16 N/A
11:35 pm 23:35 Partly Cloudy 73 22.9 72 22.3 96 96 W 3 6 29.91 1013 10 16 N/A
11:55 pm 23:55 Clear 73 22.7 72 22 96 96 W 3 6 29.91 1013 10 16 N/A

Powered by AerisWeather